Location: Notre Dame Regional High School Observatory
(37.3056°N, 89.6097°W)
Time: 06:20:53
(UTC-05:00)

Okean-O - Visible Passes

Search period start: 25 May 2015 00:00
Search period end: 04 June 2015 00:00
Orbit: 640 x 643 km, 98.1° (Epoch: 24 May)

Date Brightness Start Highest point End Pass type
(mag) Time Alt. Az. Time Alt. Az. Time Alt. Az.
25 May 5.4 03:26:48 10° ENE 03:28:21 12° E 03:30:10 10° ESE visible
25 May 2.9 05:00:58 10° N 05:05:19 54° WNW 05:09:38 10° SSW visible
26 May 4.8 03:49:12 10° NE 03:52:37 22° E 03:56:08 10° SSE visible
27 May 3.8 04:12:35 10° NNE 04:16:46 41° E 04:20:58 10° S visible
28 May 2.8 04:36:21 10° NNE 04:40:49 78° ESE 04:45:14 10° S visible
29 May 5.4 03:26:21 10° ENE 03:27:47 12° E 03:29:30 10° ESE visible
29 May 2.8 05:00:25 10° N 05:04:46 55° WNW 05:09:06 10° SSW visible
30 May 4.8 03:48:40 10° NE 03:52:04 22° E 03:55:32 10° SE visible
31 May 3.8 04:12:02 10° NNE 04:16:13 40° E 04:20:23 10° SSE visible
01 Jun 2.8 04:35:48 10° NNE 04:40:15 77° ESE 04:44:40 10° S visible
02 Jun 5.4 03:25:54 10° ENE 03:27:13 11° E 03:28:48 10° ESE visible
02 Jun 2.8 04:59:50 10° N 05:04:12 57° WNW 05:08:32 10° SSW visible
03 Jun 4.9 03:48:08 10° NE 03:51:29 21° E 03:54:56 10° SE visible
